Location: *
(37.9500°N, 27.3666°E)
Time: 03:55:05
(UTC+00:00)

Cosmos 1934 Rocket - Pass Details

Date: 24 October 2021
Orbit: 938 x 999 km, 83.0° (Epoch: 03 December)

Event Time Altitude Azimuth Distance (km) Brightness Sun altitude
Rises 15:38:29 0° 168° (SSE) 3,618 7.0 -4.2°
Reaches altitude 10° 15:41:04 10° 162° (SSE) 2,669 6.2 -4.7°
Maximum altitude 15:46:50 47° 91° (E) 1,236 4.2 -5.8°
Drops below altitude 10° 15:52:35 10° 19° (NNE) 2,661 6.0 -6.9°
Sets 15:55:09 0° 14° (NNE) 3,607 6.7 -7.4°
